Year,Month,Day,Hour,Minute,Value (Times are PST for temperature in C)
2016,08,23,00,00,12.80
2016,08,23,00,01,12.80
2016,08,23,00,02,12.80
2016,08,23,00,03,12.80
2016,08,23,00,04,12.80
2016,08,23,00,05,12.80
2016,08,23,00,06,12.80
2016,08,23,00,07,12.70
2016,08,23,00,08,12.70
2016,08,23,00,09,12.70
2016,08,23,00,10,12.60
2016,08,23,00,11,12.60
2016,08,23,00,12,12.60
2016,08,23,00,13,12.50
2016,08,23,00,14,12.50
2016,08,23,00,15,12.50
2016,08,23,00,16,12.50
2016,08,23,00,17,12.40
2016,08,23,00,18,12.40
2016,08,23,00,19,12.40
2016,08,23,00,20,12.40
2016,08,23,00,21,12.30
2016,08,23,00,22,12.30
2016,08,23,00,23,12.30
2016,08,23,00,24,12.40
2016,08,23,00,25,12.40
2016,08,23,00,26,12.40
2016,08,23,00,27,12.40
2016,08,23,00,28,12.40
2016,08,23,00,29,12.40
2016,08,23,00,30,12.40
2016,08,23,00,31,12.40
2016,08,23,00,32,12.40
2016,08,23,00,33,12.40
2016,08,23,00,34,12.40
2016,08,23,00,35,12.40
2016,08,23,00,36,12.40
2016,08,23,00,37,12.40
2016,08,23,00,38,12.40
2016,08,23,00,39,12.40
2016,08,23,00,40,12.40
2016,08,23,00,41,12.40
2016,08,23,00,42,12.40
2016,08,23,00,43,12.40
2016,08,23,00,44,12.40
2016,08,23,00,45,12.40
2016,08,23,00,46,12.40
2016,08,23,00,47,12.40
2016,08,23,00,48,12.40
2016,08,23,00,49,12.40
2016,08,23,00,50,12.40
2016,08,23,00,51,12.40
2016,08,23,00,52,12.50
2016,08,23,00,53,12.50
2016,08,23,00,54,12.50
2016,08,23,00,55,12.50
2016,08,23,00,56,12.50
2016,08,23,00,57,12.50
2016,08,23,00,58,12.50
2016,08,23,00,59,12.50
2016,08,23,01,00,12.50
2016,08,23,01,01,12.50
2016,08,23,01,02,12.50
2016,08,23,01,03,12.50
2016,08,23,01,04,12.50
2016,08,23,01,05,12.40
2016,08,23,01,06,12.40
2016,08,23,01,07,12.40
2016,08,23,01,08,12.40
2016,08,23,01,09,12.40
2016,08,23,01,10,12.30
2016,08,23,01,11,12.30
2016,08,23,01,12,12.30
2016,08,23,01,13,12.30
2016,08,23,01,14,12.30
2016,08,23,01,15,12.30
2016,08,23,01,16,12.30
2016,08,23,01,17,12.30
2016,08,23,01,18,12.20
2016,08,23,01,19,12.20
2016,08,23,01,20,12.20
2016,08,23,01,21,12.20
2016,08,23,01,22,12.20
2016,08,23,01,23,12.20
2016,08,23,01,24,12.20
2016,08,23,01,25,12.10
2016,08,23,01,26,12.10
2016,08,23,01,27,12.10
2016,08,23,01,28,12.10
2016,08,23,01,29,12.10
2016,08,23,01,30,12.10
2016,08,23,01,31,12.10
2016,08,23,01,32,12.20
2016,08,23,01,33,12.20
2016,08,23,01,34,12.20
2016,08,23,01,35,12.20
2016,08,23,01,36,12.20
2016,08,23,01,37,12.30
2016,08,23,01,38,12.30
2016,08,23,01,39,12.30
2016,08,23,01,40,12.30
2016,08,23,01,41,12.30
2016,08,23,01,42,12.30
2016,08,23,01,43,12.30
2016,08,23,01,44,12.30
2016,08,23,01,45,12.30
2016,08,23,01,46,12.30
2016,08,23,01,47,12.30
2016,08,23,01,48,12.30
2016,08,23,01,49,12.30
2016,08,23,01,50,12.30
2016,08,23,01,51,12.30
2016,08,23,01,52,12.30
2016,08,23,01,53,12.30
2016,08,23,01,54,12.30
2016,08,23,01,55,12.30
2016,08,23,01,56,12.30
2016,08,23,01,57,12.30
2016,08,23,01,58,12.30
2016,08,23,01,59,12.30
2016,08,23,02,00,12.30
2016,08,23,02,01,12.30
2016,08,23,02,02,12.30
2016,08,23,02,03,12.30
2016,08,23,02,04,12.20
2016,08,23,02,05,12.20
2016,08,23,02,06,12.20
2016,08,23,02,07,12.20
2016,08,23,02,08,12.20
2016,08,23,02,09,12.20
2016,08,23,02,10,12.20
2016,08,23,02,11,12.20
2016,08,23,02,12,12.20
2016,08,23,02,13,12.20
2016,08,23,02,14,12.20
2016,08,23,02,15,12.10
2016,08,23,02,16,12.10
2016,08,23,02,17,12.10
2016,08,23,02,18,12.10
2016,08,23,02,19,12.20
2016,08,23,02,20,12.20
2016,08,23,02,21,12.20
2016,08,23,02,22,12.20
2016,08,23,02,23,12.20
2016,08,23,02,24,12.20
2016,08,23,02,25,12.20
2016,08,23,02,26,12.20
2016,08,23,02,27,12.20
2016,08,23,02,28,12.20
2016,08,23,02,29,12.20
2016,08,23,02,30,12.20
2016,08,23,02,31,12.20
2016,08,23,02,32,12.20
2016,08,23,02,33,12.20
2016,08,23,02,34,12.20
2016,08,23,02,35,12.20
2016,08,23,02,36,12.20
2016,08,23,02,37,12.20
2016,08,23,02,38,12.20
2016,08,23,02,39,12.10
2016,08,23,02,40,12.10
2016,08,23,02,41,12.10
2016,08,23,02,42,12.10
2016,08,23,02,43,12.10
2016,08,23,02,44,12.10
2016,08,23,02,45,12.00
2016,08,23,02,46,12.00
2016,08,23,02,47,12.00
2016,08,23,02,48,12.00
2016,08,23,02,49,12.00
2016,08,23,02,50,11.90
2016,08,23,02,51,11.90
2016,08,23,02,52,11.90
2016,08,23,02,53,11.90
2016,08,23,02,54,11.90
2016,08,23,02,55,11.80
2016,08,23,02,56,11.80
2016,08,23,02,57,11.80
2016,08,23,02,58,11.80
2016,08,23,02,59,11.80
2016,08,23,03,00,11.80
2016,08,23,03,01,11.80
2016,08,23,03,02,11.80
2016,08,23,03,03,11.80
2016,08,23,03,04,11.80
2016,08,23,03,05,11.80
2016,08,23,03,06,11.80
2016,08,23,03,07,11.70
2016,08,23,03,08,11.70
2016,08,23,03,09,11.70
2016,08,23,03,10,11.70
2016,08,23,03,11,11.60
2016,08,23,03,12,11.60
2016,08,23,03,13,11.60
2016,08,23,03,14,11.60
2016,08,23,03,15,11.60
2016,08,23,03,16,11.50
2016,08,23,03,17,11.40
2016,08,23,03,18,11.40
2016,08,23,03,19,11.40
2016,08,23,03,20,11.40
2016,08,23,03,21,11.40
2016,08,23,03,22,11.30
2016,08,23,03,23,11.30
2016,08,23,03,24,11.30
2016,08,23,03,25,11.20
2016,08,23,03,26,11.20
2016,08,23,03,27,11.10
2016,08,23,03,28,11.10
2016,08,23,03,29,11.10
2016,08,23,03,30,11.10
2016,08,23,03,31,11.10
2016,08,23,03,32,11.10
2016,08,23,03,33,11.10
2016,08,23,03,34,11.00
2016,08,23,03,35,10.90
2016,08,23,03,36,10.90
2016,08,23,03,37,10.90
2016,08,23,03,38,10.90
2016,08,23,03,39,10.90
2016,08,23,03,40,10.90
2016,08,23,03,41,10.90
2016,08,23,03,42,10.90
2016,08,23,03,43,10.90
2016,08,23,03,44,10.90
2016,08,23,03,45,10.90
2016,08,23,03,46,10.90
2016,08,23,03,47,10.90
2016,08,23,03,48,10.90
2016,08,23,03,49,10.90
2016,08,23,03,50,10.90
2016,08,23,03,51,10.90
2016,08,23,03,52,10.90
2016,08,23,03,53,10.90
2016,08,23,03,54,10.90
2016,08,23,03,55,10.90
2016,08,23,03,56,10.90
2016,08,23,03,57,10.90
2016,08,23,03,58,10.90
2016,08,23,03,59,10.90
2016,08,23,04,00,10.90
2016,08,23,04,01,10.90
2016,08,23,04,02,10.90
2016,08,23,04,03,10.90
2016,08,23,04,04,10.90
2016,08,23,04,05,10.90
2016,08,23,04,06,10.90
2016,08,23,04,07,10.80
2016,08,23,04,08,10.80
2016,08,23,04,09,10.80
2016,08,23,04,10,10.80
2016,08,23,04,11,10.80
2016,08,23,04,12,10.80
2016,08,23,04,13,10.80
2016,08,23,04,14,10.80
2016,08,23,04,15,10.80
2016,08,23,04,16,10.80
2016,08,23,04,17,10.80
2016,08,23,04,18,10.80
2016,08,23,04,19,10.80
2016,08,23,04,20,10.80
2016,08,23,04,21,10.80
2016,08,23,04,22,10.80
2016,08,23,04,23,10.80
2016,08,23,04,24,10.80
2016,08,23,04,25,10.80
2016,08,23,04,26,10.90
2016,08,23,04,27,10.90
2016,08,23,04,28,10.90
2016,08,23,04,29,11.10
2016,08,23,04,30,11.10
2016,08,23,04,31,11.20
2016,08,23,04,32,11.20
2016,08,23,04,33,11.30
2016,08,23,04,34,11.40
2016,08,23,04,35,11.40
2016,08,23,04,36,11.40
2016,08,23,04,37,11.40
2016,08,23,04,38,11.40
2016,08,23,04,39,11.50
2016,08,23,04,40,11.60
2016,08,23,04,41,11.60
2016,08,23,04,42,11.60
2016,08,23,04,43,11.70
2016,08,23,04,44,11.80
2016,08,23,04,45,12.00
2016,08,23,04,46,12.20
2016,08,23,04,47,12.40
2016,08,23,04,48,12.60
2016,08,23,04,49,12.80
2016,08,23,04,50,13.00
2016,08,23,04,51,13.10
2016,08,23,04,52,13.20
2016,08,23,04,53,13.30
2016,08,23,04,54,13.50
2016,08,23,04,55,13.50
2016,08,23,04,56,13.60
2016,08,23,04,57,13.70
2016,08,23,04,58,13.70
2016,08,23,04,59,13.80
2016,08,23,05,00,13.90
2016,08,23,05,01,13.90
2016,08,23,05,02,14.00
2016,08,23,05,03,14.00
2016,08,23,05,04,14.10
2016,08,23,05,05,14.10
2016,08,23,05,06,14.20
2016,08,23,05,07,14.20
2016,08,23,05,08,14.30
2016,08,23,05,09,14.40
2016,08,23,05,10,14.40
2016,08,23,05,11,14.50
2016,08,23,05,12,14.50
2016,08,23,05,13,14.50
2016,08,23,05,14,14.60
2016,08,23,05,15,14.60
2016,08,23,05,16,14.60
2016,08,23,05,17,14.70
2016,08,23,05,18,14.70
2016,08,23,05,19,14.80
2016,08,23,05,20,14.80
2016,08,23,05,21,14.80
2016,08,23,05,22,14.80
2016,08,23,05,23,14.80
2016,08,23,05,24,14.80
2016,08,23,05,25,14.90
2016,08,23,05,26,14.90
2016,08,23,05,27,14.90
2016,08,23,05,28,14.90
2016,08,23,05,29,14.90
2016,08,23,05,30,14.80
2016,08,23,05,31,14.80
2016,08,23,05,32,14.80
2016,08,23,05,33,14.80
2016,08,23,05,34,14.80
2016,08,23,05,35,14.80
2016,08,23,05,36,14.80
2016,08,23,05,37,14.80
2016,08,23,05,38,14.70
2016,08,23,05,39,14.70
2016,08,23,05,40,14.70
2016,08,23,05,41,14.70
2016,08,23,05,42,14.70
2016,08,23,05,43,14.70
2016,08,23,05,44,14.70
2016,08,23,05,45,14.70
2016,08,23,05,46,14.70
2016,08,23,05,47,14.60
2016,08,23,05,48,14.60
2016,08,23,05,49,14.60
2016,08,23,05,50,14.60
2016,08,23,05,51,14.60
2016,08,23,05,52,14.60
2016,08,23,05,53,14.50
2016,08,23,05,54,14.50
2016,08,23,05,55,14.50
2016,08,23,05,56,14.50
2016,08,23,05,57,14.50
2016,08,23,05,58,14.50
2016,08,23,05,59,14.50
2016,08,23,06,00,14.60
2016,08,23,06,01,14.60
2016,08,23,06,02,14.60
2016,08,23,06,03,14.60
2016,08,23,06,04,14.60
2016,08,23,06,05,14.60
2016,08,23,06,06,14.60
2016,08,23,06,07,14.60
2016,08,23,06,08,14.60
2016,08,23,06,09,14.60
2016,08,23,06,10,14.60
2016,08,23,06,11,14.60
2016,08,23,06,12,14.50
2016,08,23,06,13,14.50
2016,08,23,06,14,14.50
2016,08,23,06,15,14.50
2016,08,23,06,16,14.40
2016,08,23,06,17,14.40
2016,08,23,06,18,14.40
2016,08,23,06,19,14.40
2016,08,23,06,20,14.40
2016,08,23,06,21,14.30
2016,08,23,06,22,14.30
2016,08,23,06,23,14.20
2016,08,23,06,24,14.20
2016,08,23,06,25,14.20
2016,08,23,06,26,14.20
2016,08,23,06,27,14.20
2016,08,23,06,28,14.10
2016,08,23,06,29,14.00
2016,08,23,06,30,13.90
2016,08,23,06,31,13.90
2016,08,23,06,32,13.80
2016,08,23,06,33,13.70
2016,08,23,06,34,13.70
2016,08,23,06,35,13.60
2016,08,23,06,36,13.60
2016,08,23,06,37,13.50
2016,08,23,06,38,13.50
2016,08,23,06,39,13.50
2016,08,23,06,40,13.40
2016,08,23,06,41,13.40
2016,08,23,06,42,13.40
2016,08,23,06,43,13.30
2016,08,23,06,44,13.30
2016,08,23,06,45,13.30
2016,08,23,06,46,13.30
2016,08,23,06,47,13.30
2016,08,23,06,48,13.30
2016,08,23,06,49,13.30
2016,08,23,06,50,13.30
2016,08,23,06,51,13.30
2016,08,23,06,52,13.30
2016,08,23,06,53,13.30
2016,08,23,06,54,13.30
2016,08,23,06,55,13.30
2016,08,23,06,56,13.30
2016,08,23,06,57,13.30
2016,08,23,06,58,13.30
2016,08,23,06,59,13.30
2016,08,23,07,00,13.30
2016,08,23,07,01,13.30
2016,08,23,07,02,13.30
2016,08,23,07,03,13.30
2016,08,23,07,04,13.30
2016,08,23,07,05,13.30
2016,08,23,07,06,13.20
2016,08,23,07,07,13.20
2016,08,23,07,08,13.20
2016,08,23,07,09,13.20
2016,08,23,07,10,13.20
2016,08,23,07,11,13.20
2016,08,23,07,12,13.20
2016,08,23,07,13,13.20
2016,08,23,07,14,13.20
2016,08,23,07,15,13.20
2016,08,23,07,16,13.20
2016,08,23,07,17,13.20
2016,08,23,07,18,13.20
2016,08,23,07,19,13.20
2016,08,23,07,20,13.20
2016,08,23,07,21,13.20
2016,08,23,07,22,13.20
2016,08,23,07,23,13.20
2016,08,23,07,24,13.20
2016,08,23,07,25,13.30
2016,08,23,07,26,13.30
2016,08,23,07,27,13.30
2016,08,23,07,28,13.30
2016,08,23,07,29,13.40
2016,08,23,07,30,13.40
2016,08,23,07,31,13.50
2016,08,23,07,32,13.60
2016,08,23,07,33,13.70
2016,08,23,07,34,13.80
2016,08,23,07,35,14.00
2016,08,23,07,36,14.10
2016,08,23,07,37,14.20
2016,08,23,07,38,14.30
2016,08,23,07,39,14.50
2016,08,23,07,40,14.60
2016,08,23,07,41,14.70
2016,08,23,07,42,14.80
2016,08,23,07,43,14.90
2016,08,23,07,44,15.00
2016,08,23,07,45,15.00
2016,08,23,07,46,15.10
2016,08,23,07,47,15.20
2016,08,23,07,48,15.20
2016,08,23,07,49,15.20
2016,08,23,07,50,15.20
2016,08,23,07,51,15.20
2016,08,23,07,52,15.20
2016,08,23,07,53,15.20
2016,08,23,07,54,15.20
2016,08,23,07,55,15.20
2016,08,23,07,56,15.20
2016,08,23,07,57,15.20
2016,08,23,07,58,15.20
2016,08,23,07,59,15.20
2016,08,23,08,00,15.20
2016,08,23,08,01,15.10
2016,08,23,08,02,15.10
2016,08,23,08,03,15.10
2016,08,23,08,04,15.10
2016,08,23,08,05,15.10
2016,08,23,08,06,15.10
2016,08,23,08,07,15.10
2016,08,23,08,08,15.20
2016,08,23,08,09,15.20
2016,08,23,08,10,15.20
2016,08,23,08,11,15.20
2016,08,23,08,12,15.30
2016,08,23,08,13,15.30
2016,08,23,08,14,15.30
2016,08,23,08,15,15.30
2016,08,23,08,16,15.30
2016,08,23,08,17,15.40
2016,08,23,08,18,15.40
2016,08,23,08,19,15.50
2016,08,23,08,20,15.50
2016,08,23,08,21,15.50
2016,08,23,08,22,15.60
2016,08,23,08,23,15.60
2016,08,23,08,24,15.70
2016,08,23,08,25,15.70
2016,08,23,08,26,15.80
2016,08,23,08,27,15.80
2016,08,23,08,28,15.80
2016,08,23,08,29,15.80
2016,08,23,08,30,15.90
2016,08,23,08,31,15.90
2016,08,23,08,32,15.90
2016,08,23,08,33,15.90
2016,08,23,08,34,15.90
2016,08,23,08,35,15.90
2016,08,23,08,36,16.00
2016,08,23,08,37,16.10
2016,08,23,08,38,16.10
2016,08,23,08,39,16.10
2016,08,23,08,40,16.10
2016,08,23,08,41,16.10
2016,08,23,08,42,16.10
2016,08,23,08,43,16.20
2016,08,23,08,44,16.20
2016,08,23,08,45,16.20
2016,08,23,08,46,16.30
2016,08,23,08,47,16.30
2016,08,23,08,48,16.30
2016,08,23,08,49,16.40
2016,08,23,08,50,16.40
2016,08,23,08,51,16.40
2016,08,23,08,52,16.40
2016,08,23,08,53,16.40
2016,08,23,08,54,16.50
2016,08,23,08,55,16.60
2016,08,23,08,56,16.60
2016,08,23,08,57,16.70
2016,08,23,08,58,16.70
2016,08,23,08,59,16.70
2016,08,23,09,00,16.80
2016,08,23,09,01,16.90
2016,08,23,09,02,17.00
2016,08,23,09,03,17.10
2016,08,23,09,04,17.20
2016,08,23,09,05,17.30
2016,08,23,09,06,17.40
2016,08,23,09,07,17.50
2016,08,23,09,08,17.60
2016,08,23,09,09,17.60
2016,08,23,09,10,17.70
2016,08,23,09,11,17.70
2016,08,23,09,12,17.70
2016,08,23,09,13,17.70
2016,08,23,09,14,17.80
2016,08,23,09,15,17.80
2016,08,23,09,16,17.90
2016,08,23,09,17,17.90
2016,08,23,09,18,17.90
2016,08,23,09,19,18.00
2016,08,23,09,20,18.10
2016,08,23,09,21,18.10
2016,08,23,09,22,18.10
2016,08,23,09,23,18.10
2016,08,23,09,24,18.00
2016,08,23,09,25,17.90
2016,08,23,09,26,17.90
2016,08,23,09,27,17.90
2016,08,23,09,28,17.90
2016,08,23,09,29,17.80
2016,08,23,09,30,17.80
2016,08,23,09,31,17.80
2016,08,23,09,32,17.80
2016,08,23,09,33,17.90
2016,08,23,09,34,17.90
2016,08,23,09,35,17.90
2016,08,23,09,36,18.10
2016,08,23,09,37,18.10
2016,08,23,09,38,18.20
2016,08,23,09,39,18.10
2016,08,23,09,40,18.10
2016,08,23,09,41,18.20
2016,08,23,09,42,18.20
2016,08,23,09,43,18.20
2016,08,23,09,44,18.30
2016,08,23,09,45,18.30
2016,08,23,09,46,18.40
2016,08,23,09,47,18.50
2016,08,23,09,48,18.50
2016,08,23,09,49,18.50
2016,08,23,09,50,18.60
2016,08,23,09,51,18.60
2016,08,23,09,52,18.70
2016,08,23,09,53,18.70
2016,08,23,09,54,18.70
2016,08,23,09,55,18.70
2016,08,23,09,56,18.70
2016,08,23,09,57,18.70
2016,08,23,09,58,18.70
2016,08,23,09,59,18.70
2016,08,23,10,00,18.70
2016,08,23,10,01,18.80
2016,08,23,10,02,18.90
2016,08,23,10,03,18.90
2016,08,23,10,04,18.90
2016,08,23,10,05,19.00
2016,08,23,10,06,19.10
2016,08,23,10,07,19.10
2016,08,23,10,08,19.10
2016,08,23,10,09,19.10
2016,08,23,10,10,19.10
2016,08,23,10,11,19.30
2016,08,23,10,12,19.30
2016,08,23,10,13,19.30
2016,08,23,10,14,19.30
2016,08,23,10,15,19.20
2016,08,23,10,16,19.20
2016,08,23,10,17,19.20
2016,08,23,10,18,19.30
2016,08,23,10,19,19.30
2016,08,23,10,20,19.30
2016,08,23,10,21,19.40
2016,08,23,10,22,19.40
2016,08,23,10,23,19.40
2016,08,23,10,24,19.40
2016,08,23,10,25,19.50
2016,08,23,10,26,19.60
2016,08,23,10,27,19.60
2016,08,23,10,28,19.60
2016,08,23,10,29,19.60
2016,08,23,10,30,19.60
2016,08,23,10,31,19.60
2016,08,23,10,32,19.50
2016,08,23,10,33,19.50
2016,08,23,10,34,19.50
2016,08,23,10,35,19.50
2016,08,23,10,36,19.40
2016,08,23,10,37,19.30
2016,08,23,10,38,19.30
2016,08,23,10,39,19.40
2016,08,23,10,40,19.40
2016,08,23,10,41,19.40
2016,08,23,10,42,19.40
2016,08,23,10,43,19.40
2016,08,23,10,44,19.40
2016,08,23,10,45,19.50
2016,08,23,10,46,19.60
2016,08,23,10,47,19.50
2016,08,23,10,48,19.50
2016,08,23,10,49,19.50
2016,08,23,10,50,19.50
2016,08,23,10,51,19.60
2016,08,23,10,52,19.50
2016,08,23,10,53,19.60
2016,08,23,10,54,19.60
2016,08,23,10,55,19.60
2016,08,23,10,56,19.60
2016,08,23,10,57,19.70
2016,08,23,10,58,19.80
2016,08,23,10,59,19.90
2016,08,23,11,00,19.80
2016,08,23,11,01,19.80
2016,08,23,11,02,19.60
2016,08,23,11,03,19.60
2016,08,23,11,04,19.60
2016,08,23,11,05,19.60
2016,08,23,11,06,19.60
2016,08,23,11,07,19.80
2016,08,23,11,08,19.90
2016,08,23,11,09,19.90
2016,08,23,11,10,20.00
2016,08,23,11,11,20.10
2016,08,23,11,12,20.20
2016,08,23,11,13,20.30
2016,08,23,11,14,20.30
2016,08,23,11,15,20.30
2016,08,23,11,16,20.30
2016,08,23,11,17,20.30
2016,08,23,11,18,20.30
2016,08,23,11,19,20.30
2016,08,23,11,20,20.20
2016,08,23,11,21,20.20
2016,08,23,11,22,20.20
2016,08,23,11,23,20.20
2016,08,23,11,24,20.30
2016,08,23,11,25,20.40
2016,08,23,11,26,20.50
2016,08,23,11,27,20.60
2016,08,23,11,28,20.60
2016,08,23,11,29,20.70
2016,08,23,11,30,20.80
2016,08,23,11,31,20.80
2016,08,23,11,32,20.90
2016,08,23,11,33,20.80
2016,08,23,11,34,20.60
2016,08,23,11,35,20.50
2016,08,23,11,36,20.40
2016,08,23,11,37,20.40
2016,08,23,11,38,20.40
2016,08,23,11,39,20.50
2016,08,23,11,40,20.50
2016,08,23,11,41,20.40
2016,08,23,11,42,20.40
2016,08,23,11,43,20.40
2016,08,23,11,44,20.50
2016,08,23,11,45,20.40
2016,08,23,11,46,20.30
2016,08,23,11,47,20.30
2016,08,23,11,48,20.50
2016,08,23,11,49,20.60
2016,08,23,11,50,20.60
2016,08,23,11,51,20.70
2016,08,23,11,52,20.70
2016,08,23,11,53,20.90
2016,08,23,11,54,21.10
2016,08,23,11,55,21.20
2016,08,23,11,56,21.30
2016,08,23,11,57,21.30
2016,08,23,11,58,21.30
2016,08,23,11,59,21.20
2016,08,23,12,00,21.10
2016,08,23,12,01,21.10
2016,08,23,12,02,21.10
2016,08,23,12,03,21.10
2016,08,23,12,04,21.20
2016,08,23,12,05,21.20
2016,08,23,12,06,21.40
2016,08,23,12,07,21.60
2016,08,23,12,08,21.60
2016,08,23,12,09,21.60
2016,08,23,12,10,21.60
2016,08,23,12,11,21.60
2016,08,23,12,12,21.50
2016,08,23,12,13,21.40
2016,08,23,12,14,21.30
2016,08,23,12,15,21.30
2016,08,23,12,16,21.30
2016,08,23,12,17,21.30
2016,08,23,12,18,21.30
2016,08,23,12,19,21.30
2016,08,23,12,20,21.30
2016,08,23,12,21,21.30
2016,08,23,12,22,21.30
2016,08,23,12,23,21.30
2016,08,23,12,24,21.30
2016,08,23,12,25,21.40
2016,08,23,12,26,21.60
2016,08,23,12,27,21.60
2016,08,23,12,28,21.60
2016,08,23,12,29,21.60
2016,08,23,12,30,21.70
2016,08,23,12,31,21.50
2016,08,23,12,32,21.30
2016,08,23,12,33,21.10
2016,08,23,12,34,20.90
2016,08,23,12,35,20.90
2016,08,23,12,36,20.90
2016,08,23,12,37,20.90
2016,08,23,12,38,20.80
2016,08,23,12,39,20.80
2016,08,23,12,40,20.90
2016,08,23,12,41,20.90
2016,08,23,12,42,21.00
2016,08,23,12,43,21.00
2016,08,23,12,44,21.10
2016,08,23,12,45,21.10
2016,08,23,12,46,21.10
2016,08,23,12,47,21.00
2016,08,23,12,48,21.00
2016,08,23,12,49,20.80
2016,08,23,12,50,20.70
2016,08,23,12,51,20.50
2016,08,23,12,52,20.30
2016,08,23,12,53,20.40
2016,08,23,12,54,20.40
2016,08,23,12,55,20.50
2016,08,23,12,56,20.50
2016,08,23,12,57,20.70
2016,08,23,12,58,20.80
2016,08,23,12,59,20.90
2016,08,23,13,00,21.10
2016,08,23,13,01,21.10
2016,08,23,13,02,20.90
2016,08,23,13,03,20.80
2016,08,23,13,04,20.70
2016,08,23,13,05,20.60
2016,08,23,13,06,20.60
2016,08,23,13,07,20.60
2016,08,23,13,08,20.70
2016,08,23,13,09,20.80
2016,08,23,13,10,20.90
2016,08,23,13,11,20.90
2016,08,23,13,12,21.10
2016,08,23,13,13,21.30
2016,08,23,13,14,21.30
2016,08,23,13,15,21.30
2016,08,23,13,16,21.30
2016,08,23,13,17,21.30
2016,08,23,13,18,21.30
2016,08,23,13,19,21.40
2016,08,23,13,20,21.40
2016,08,23,13,21,21.30
2016,08,23,13,22,21.30
2016,08,23,13,23,21.30
2016,08,23,13,24,21.30
2016,08,23,13,25,21.30
2016,08,23,13,26,21.20
2016,08,23,13,27,21.20
2016,08,23,13,28,21.20
2016,08,23,13,29,21.20
2016,08,23,13,30,21.30
2016,08,23,13,31,21.30
2016,08,23,13,32,21.40
2016,08,23,13,33,21.50
2016,08,23,13,34,21.60
2016,08,23,13,35,21.80
2016,08,23,13,36,21.80
2016,08,23,13,37,21.80
2016,08,23,13,38,21.70
2016,08,23,13,39,21.90
2016,08,23,13,40,22.00
2016,08,23,13,41,22.00
2016,08,23,13,42,21.90
2016,08,23,13,43,22.00
2016,08,23,13,44,22.10
2016,08,23,13,45,22.20
2016,08,23,13,46,22.30
2016,08,23,13,47,22.30
2016,08,23,13,48,22.30
2016,08,23,13,49,22.30
2016,08,23,13,50,22.30
2016,08,23,13,51,22.30
2016,08,23,13,52,22.30
2016,08,23,13,53,22.50
2016,08,23,13,54,22.50
2016,08,23,13,55,22.60
2016,08,23,13,56,22.60
2016,08,23,13,57,22.50
2016,08,23,13,58,22.50
2016,08,23,13,59,22.60
2016,08,23,14,00,22.60
2016,08,23,14,01,22.50
2016,08,23,14,02,22.50
2016,08,23,14,03,22.60
2016,08,23,14,04,22.60
2016,08,23,14,05,22.60
2016,08,23,14,06,22.60
2016,08,23,14,07,22.60
2016,08,23,14,08,22.70
2016,08,23,14,09,22.80
2016,08,23,14,10,22.90
2016,08,23,14,11,22.90
2016,08,23,14,12,23.00
2016,08,23,14,13,23.10
2016,08,23,14,14,23.10
2016,08,23,14,15,23.20
2016,08,23,14,16,23.30
2016,08,23,14,17,23.30
2016,08,23,14,18,23.20
2016,08,23,14,19,23.10
2016,08,23,14,20,23.00
2016,08,23,14,21,22.90
2016,08,23,14,22,22.90
2016,08,23,14,23,22.90
2016,08,23,14,24,22.90
2016,08,23,14,25,23.10
2016,08,23,14,26,23.30
2016,08,23,14,27,23.50
2016,08,23,14,28,23.50
2016,08,23,14,29,23.40
2016,08,23,14,30,23.30
2016,08,23,14,31,23.20
2016,08,23,14,32,23.20
2016,08,23,14,33,23.20
2016,08,23,14,34,23.10
2016,08,23,14,35,23.20
2016,08,23,14,36,23.20
2016,08,23,14,37,23.10
2016,08,23,14,38,23.10
2016,08,23,14,39,23.10
2016,08,23,14,40,23.00
2016,08,23,14,41,22.90
2016,08,23,14,42,22.90
2016,08,23,14,43,22.90
2016,08,23,14,44,22.90
2016,08,23,14,45,23.00
2016,08,23,14,46,23.10
2016,08,23,14,47,23.20
2016,08,23,14,48,23.30
2016,08,23,14,49,23.30
2016,08,23,14,50,23.30
2016,08,23,14,51,23.30
2016,08,23,14,52,23.40
2016,08,23,14,53,23.50
2016,08,23,14,54,23.70
2016,08,23,14,55,23.70
2016,08,23,14,56,23.80
2016,08,23,14,57,24.00
2016,08,23,14,58,24.10
2016,08,23,14,59,24.30
2016,08,23,15,00,24.50
2016,08,23,15,01,24.60
2016,08,23,15,02,24.60
2016,08,23,15,03,24.50
2016,08,23,15,04,24.40
2016,08,23,15,05,24.40
2016,08,23,15,06,24.20
2016,08,23,15,07,24.30
2016,08,23,15,08,24.30
2016,08,23,15,09,24.40
2016,08,23,15,10,24.40
2016,08,23,15,11,24.40
2016,08,23,15,12,24.30
2016,08,23,15,13,24.20
2016,08,23,15,14,24.10
2016,08,23,15,15,24.10
2016,08,23,15,16,24.00
2016,08,23,15,17,23.80
2016,08,23,15,18,23.80
2016,08,23,15,19,23.60
2016,08,23,15,20,23.30
2016,08,23,15,21,23.20
2016,08,23,15,22,23.20
2016,08,23,15,23,23.20
2016,08,23,15,24,23.30
2016,08,23,15,25,23.20
2016,08,23,15,26,23.20
2016,08,23,15,27,23.20
2016,08,23,15,28,23.20
2016,08,23,15,29,23.30
2016,08,23,15,30,23.30
2016,08,23,15,31,23.30
2016,08,23,15,32,23.30
2016,08,23,15,33,23.30
2016,08,23,15,34,23.40
2016,08,23,15,35,23.50
2016,08,23,15,36,23.70
2016,08,23,15,37,23.70
2016,08,23,15,38,23.70
2016,08,23,15,39,23.70
2016,08,23,15,40,23.80
2016,08,23,15,41,23.90
2016,08,23,15,42,24.10
2016,08,23,15,43,24.10
2016,08,23,15,44,24.10
2016,08,23,15,45,24.10
2016,08,23,15,46,24.10
2016,08,23,15,47,24.10
2016,08,23,15,48,24.00
2016,08,23,15,49,23.80
2016,08,23,15,50,23.80
2016,08,23,15,51,23.90
2016,08,23,15,52,24.00
2016,08,23,15,53,24.10
2016,08,23,15,54,24.10
2016,08,23,15,55,24.10
2016,08,23,15,56,24.10
2016,08,23,15,57,24.10
2016,08,23,15,58,24.10
2016,08,23,15,59,24.10
2016,08,23,16,00,24.10
2016,08,23,16,01,24.10
2016,08,23,16,02,24.00
2016,08,23,16,03,23.90
2016,08,23,16,04,23.80
2016,08,23,16,05,23.70
2016,08,23,16,06,23.70
2016,08,23,16,07,23.70
2016,08,23,16,08,23.70
2016,08,23,16,09,23.70
2016,08,23,16,10,23.70
2016,08,23,16,11,23.60
2016,08,23,16,12,23.60
2016,08,23,16,13,23.60
2016,08,23,16,14,23.60
2016,08,23,16,15,23.50
2016,08,23,16,16,23.40
2016,08,23,16,17,23.30
2016,08,23,16,18,23.20
2016,08,23,16,19,23.20
2016,08,23,16,20,23.20
2016,08,23,16,21,23.20
2016,08,23,16,22,23.20
2016,08,23,16,23,23.20
2016,08,23,16,24,23.20
2016,08,23,16,25,23.10
2016,08,23,16,26,23.10
2016,08,23,16,27,23.10
2016,08,23,16,28,23.00
2016,08,23,16,29,23.00
2016,08,23,16,30,23.10
2016,08,23,16,31,23.20
2016,08,23,16,32,23.20
2016,08,23,16,33,23.20
2016,08,23,16,34,23.20
2016,08,23,16,35,23.10
2016,08,23,16,36,23.00
2016,08,23,16,37,22.90
2016,08,23,16,38,22.90
2016,08,23,16,39,22.90
2016,08,23,16,40,22.90
2016,08,23,16,41,22.90
2016,08,23,16,42,22.80
2016,08,23,16,43,22.80
2016,08,23,16,44,22.80
2016,08,23,16,45,22.70
2016,08,23,16,46,22.60
2016,08,23,16,47,22.60
2016,08,23,16,48,22.50
2016,08,23,16,49,22.50
2016,08,23,16,50,22.50
2016,08,23,16,51,22.60
2016,08,23,16,52,22.70
2016,08,23,16,53,22.80
2016,08,23,16,54,22.80
2016,08,23,16,55,22.90
2016,08,23,16,56,22.90
2016,08,23,16,57,23.00
2016,08,23,16,58,23.10
2016,08,23,16,59,23.00
2016,08,23,17,00,22.90
2016,08,23,17,01,23.00
2016,08,23,17,02,23.10
2016,08,23,17,03,23.10
2016,08,23,17,04,23.00
2016,08,23,17,05,22.90
2016,08,23,17,06,22.90
2016,08,23,17,07,22.90
2016,08,23,17,08,22.90
2016,08,23,17,09,22.90
2016,08,23,17,10,22.80
2016,08,23,17,11,22.80
2016,08,23,17,12,22.80
2016,08,23,17,13,22.70
2016,08,23,17,14,22.80
2016,08,23,17,15,22.90
2016,08,23,17,16,22.90
2016,08,23,17,17,22.90
2016,08,23,17,18,22.90
2016,08,23,17,19,22.90